Regional Weather Roundup
Issued by NWS

Home | Current Version | Previous Version | Graphics & Text | Print | Product List | Glossary On
Versions: 1 2 3 4 5 6 7 8 9 10 11 12 13 14 15 16 17 18 19 20 21 22 23 24 25 26 27 28 29 30 31 32 33 34 35 36 37 38 39 40 41 42 43 44 45 46 47 48 49 50
000
ASUS43 KFSD 260510
RWRSD

WEATHER ROUNDUP FOR SOUTH DAKOTA
NATIONAL WEATHER SERVICE SIOUX FALLS SD
1200 AM CDT SAT JUL 26 2014

NOTE: "FAIR" INDICATES FEW OR NO CLOUDS BELOW 12,000 FEET WITH NO
SIGNIFICANT WEATHER AND/OR OBSTRUCTIONS TO VISIBILITY.


SDZ001>005-009-010-012>017-260600-
NORTHWEST AND NORTH CENTRAL SOUTH DAKOTA

CITY           SKY/WX    TMP DP  RH WIND       PRES   REMARKS
BUFFALO          N/A     70  50  49 CALM      29.85R
FAITH            N/A     68  52  56 SE13      29.86F
MOBRIDGE       CLEAR     63  56  78 SE8       29.83S
$$

SDZ012>016-024>037-041>051-057-063-072>074-260600-
SOUTHWEST AND SOUTH CENTRAL SOUTH DAKOTA

CITY           SKY/WX    TMP DP  RH WIND       PRES   REMARKS
RAPID CTY ARPT CLEAR     64  53  67 N7        29.87F
PIERRE         MOCLDY    70  66  87 E10       29.81F
CUSTER         CLEAR     62  48  60 NE5       30.02F
ELLSWORTH AFB  CLEAR     66  56  69 W6        29.88F
PHILIP         PTCLDY    70  50  49 E7        29.83F
PINE RIDGE     CLEAR     75  55  49 S8        29.84F
WINNER         FAIR      74  67  78 E9        29.86S
$$

SDZ004>011-016>023-039-040-260600-
NORTHEAST SOUTH DAKOTA

CITY           SKY/WX    TMP DP  RH WIND       PRES   REMARKS
ABERDEEN       CLEAR     56  55  97 S5        29.85S
WATERTOWN      MOCLDY    66  66 100 NW6       29.88R
SISSETON         N/A     64  63  96 N5        29.84R
$$

SDZ017-020-022-023-036>040-048>070-260600-
SOUTHEAST SOUTH DAKOTA

CITY           SKY/WX    TMP DP  RH WIND       PRES   REMARKS
SIOUX FALLS    MOCLDY    72  69  90 CALM      29.84S
HURON          PTCLDY    64  62  93 NW5       29.86R
CHAMBERLAIN    PTCLDY    71  66  85 E6        29.87R
MITCHELL       PTCLDY    71  67  87 NW5       29.85R
YANKTON        CLEAR     73  70  88 N8        29.83R
$$

ABBREVIATIONS USED IN REMARKS
   TC - TEMPERATURE IN CELSIUS
  WCI - WIND CHILL INDEX
   HX - HEAT INDEX
  VSB - VISIBILITY




USA.gov is the U.S. government's official web portal to all federal, state and local government web resources and services.